Lifton, United Kingdom
Current Conditions -  °F | °C
As of 7:20 PM on Thursday 18 Dec 2014 (Local Time) from EGHQ Reporting Station
Light Rain Light Rain  
Wind Chill: 52°   Ceiling: 300
Heat Index: 52°   Visibility: 1.8mi
Dew Point: 50°   Wind: 29mph
Humidity: 94%   Direction: 240°WSW
Pressure: 29.97"   Gusts: 41mph
Location:  50.64°N, 4.28°W
Report Text: EGHQ 181920Z 24025G36KT 3000 -RA BR BKN003 11/10 Q1015
Loading
Personal Weather Stations






























Interactive Weather Map New forecast layout! Learn more

10-Day Weather Forecast

Advertisements
Track Severe Weather on mobile